EHI
0 0 0 0 0 0 0 0 0 0 0 0 0 0 0 0 0 0 0 0 0 0 0 0 0 0 0 0 0 0 0 0 0 0 0 0 0 0 0 0 0 0 0 0
0 0 0 0 0 0 0 0 0 0 0 0 0 0 0 0 0 0 0 0 0 0 0 0 0 0 0 0 0 0 0 0 0 0 0 0 0 0 0 0 0 0 0 0
0 0 0 0 0 0 0 0 0 0 0 0 0 0 0 0 0 0 0 0 0 0 0 0 0 0 0 0 0 0 0 0 0 0 0 0 0 0 0 0 0 0 0 0
0 0 0 0 0 0 0 0 0 0 0 0 0 0 0 0 0 0 0 0 0 0 0 0 0 0 0 0 0 0 0 0 0 0 0 0 0 0 0 0 0 0 0 0
0 0 0 0 0 0 0 0 0 0 0 0 0 0 0 0 0 0 0 0 0 0 0 0 0 0 0 0 0 0 0 0 0 0 0 0 0 0 0 0 0 0 0 0
0 0 0 0 0 0 0 0 0 0 0 0 0 0 0 0 0 0 0 0 0 0 0 0 0 0 0 0 0 0 0 0 0 0 0 0 0 0 0 0 0 0 0 0
0 0 0 0 0 0 0 0 0 0 0 0 0 0 0 0 0 0 0 0 0 0 0 0 0 0 0 0 0 0 0 0 0 0 0 0 0 0 0 0 0 0 0 0
0 0 0 0 0 0 0 0 0 0 0 0 0 0 0 0 0 0 0 0 0 0 0 0 0 0 0 0 0 0 0 0 0 0 0 0 0 0 0 0 0 0 0 0
0 0 0 0 0 0 0 0 0 0 0 0 0 0 0 0 0 0 0 0 0 0 0 0 0 0 0 0 0 0 0 0 0 0 0 0 0 0 0 0 0 0 0 0
0 0 0 0 0 0 0 0 0 0 0 0 0 0 0 0 0 0 0 0 0 0 0 0 0 0 0 0 0 0 0 0 0 0 0 0 0 0 0 0 0 0 0 0
0 0 0 0 0 0 0 0 0 0 0 0 0 0 0 0 0 0 0 0 0 0 0 0 0 0 0 0 0 0 0 0 0 0 0 0 0 0 0 0 0 0 0 0
0 0 0 0 0 0 0 0 0 0 0 0 0 0 0 0 0 0 0 0 0 0 0 0 0 0 0 0 0 0 0 0 0 0 0 0 0 0 0 0 0 0 0 0
0 0 0 0 0 0 0 0 0 0 0 0 0 0 0 0 0 0 0 0 0 0 0 0 0 0 0 0 0 0 0 0 0 0 0 0 0 0 0 0 0 0 0 0
0 0 0 0 0 0 0 0 0 0 0 0 0 0 0 0 0 0 0 0 0 0 0 0 0 0 0 0 0 0 0 0 0 0 0 0 0 0 0 0 0 0 0 0
0 0 0 0 0 0 0 0 0 0 0 0 0 0 0 0 0 0 0 0 0 0 0 0 0 0 0 0 0 0 0 0 0 0 0 0 0 0 0 0 0 0 0 0
0 0 0 0 0 0 0 0 0 0 0 0 0 0 0 0 0 0 0 0 0 0 0 0 0 0 0 0 0 0 0 0 0 0 0 0 0 0 0 0 0 0 0 0
0 0 0 0 0 0 0 0 0 0 0 0 0 0 0 0 0 0 0 0 0 0 0 0 0 0 0 0 0 0 0 0 0 0 0 0 0 0 0 0 0 0 0 0
0 0 0 0 0 0 0 0 0 0 0 0 0 0 0 0 0 0 0 0 0 0 0 0 0 0 0 0 0 0 0 0 0 0 0 0 0 0 0 0 0 0 0 0
0 0 0 0 0 0 0 0 0 0 0 0 0 0 0 0 0 0 0 0 0 0 0 0 0 0 0 0 0 0 0 0 0 0 0 0 0 0 0 0 0 0 0 0
0 0 0 0 0 0 0 0 0 0 0 0 0 0 0 0 0 0 0 0 0 0 0 0 0 0 0 0 0 0 0 0 0 0 0 0 0 0 0 0 0 0 0 0
0 0 0 0 0 0 0 0 0 0 0 0 0 0 0 0 0 0 0 0 0 0 0 0 0 0 0 0 0 0 0 0 0 0 0 0 0 0 0 0 0 0 0 0
0 0 0 0 0 0 0 0 0 0 0 0 0 0 0 0 0 0 0 0 0 0 0 0 0 0 0 0 0 0 0 0 0 0 0 0 0 0 0 0 0 0 0 0
0 0 0 0 0 0 0 0 0 0 0 0 0 0 0 0 0 0 0 0 0 0 0 0 0 0 0 0 0 0 0 0 0 0 0 0 0 0 0 0 0 0 0 0
0 0 0 0 0 0 0 0 0 0 0 0 0 0 0 0 0 0 0 0 0 0 0 0 0 0 0 0 0 0 0 0 0 0 0 0 0 0 0 0 0 0 0 0
0 0 0 0 0 0 0 0 0 0 0 0 0 0 0 0 0 0 0 0 0 0 0 0 0 0 0 0 0 0 0 0 0 0 0 0 0 0 0 0 0 0 0 0
0 0 0 0 0 0 0 0 0 0 0 0 0 0 0 0 0 0 0 0 0 0 0 0 0 0 0 0 0 0 0 0 0 0 0 0 0 0 0 0 0 0 0 0
0 0 0 0 0 0 0 0 0 0 0 0 0 0 0 0 0 0 0 0 0 0 0 0 0 0 0 0 0 0 0 0 0 0 0 0 0 0 0 0 0 0 0 0
Wind_Speed
12 11 8 10 12 9 10 11 11 14 15 17 13 9 7 6 6 5 5 5 4 3 3 3 3 4 4 4 4 4 4 4 5 3 3 3 3 5 5 6 7 8 8 8
10 10 11 16 17 16 16 14 15 16 19 16 13 8 7 6 5 5 5 5 4 3 3 3 4 4 4 5 5 4 4 5 5 3 3 3 3 3 4 5 5 7 8 8
8 6 5 12 13 14 10 9 9 14 16 10 8 7 6 5 5 5 5 4 4 3 3 4 4 4 4 4 5 4 4 5 5 4 3 3 3 2 3 4 5 6 7 7
4 2 10 10 4 7 9 11 10 10 10 8 8 7 5 4 5 5 4 3 4 4 4 4 3 4 4 4 4 4 4 5 5 4 4 3 3 2 3 3 4 5 6 6
4 6 11 9 5 4 5 8 8 9 9 8 6 3 5 4 4 5 4 4 4 3 3 3 4 4 3 3 3 4 5 5 5 5 5 4 3 3 3 2 3 5 6 6
5 6 9 8 4 2 1 7 6 5 6 5 2 2 6 4 3 3 3 3 3 2 2 3 4 3 3 4 3 4 5 6 6 5 5 4 4 4 3 3 3 4 5 5
9 9 11 8 3 2 3 8 4 3 4 3 4 6 6 4 4 3 3 3 2 2 2 3 3 2 3 3 4 4 5 5 5 5 4 4 4 3 2 2 3 4 4 4
7 8 12 5 4 6 9 4 3 4 4 5 6 6 5 5 4 4 3 3 2 2 3 3 3 2 3 4 5 4 4 4 5 5 4 4 3 3 2 2 3 3 4 3
10 11 6 5 7 6 4 5 5 5 5 5 5 6 6 5 5 5 4 4 3 2 3 3 3 2 3 4 4 4 4 5 5 5 4 4 3 3 2 1 2 2 3 3
7 10 9 8 7 7 6 7 7 6 6 5 6 7 6 5 5 5 5 4 3 3 3 4 4 3 3 4 3 3 4 4 4 5 5 4 3 2 1 1 1 2 3 3
10 9 7 9 10 10 8 6 6 6 6 7 7 7 6 6 6 5 5 4 4 3 4 5 4 4 4 3 3 3 4 4 4 4 4 4 3 2 2 2 2 3 3 3
12 10 8 8 7 7 7 7 7 7 7 6 6 7 7 6 6 5 5 4 4 4 4 4 4 4 4 3 2 3 3 4 3 4 4 3 2 3 3 3 4 4 4 4
12 9 8 8 7 6 7 6 6 6 7 7 6 6 6 6 5 5 5 4 4 5 5 4 4 4 4 3 3 3 4 4 3 3 3 3 2 2 3 4 4 3 2 3
9 6 7 7 7 6 6 6 6 6 6 5 6 5 5 5 4 5 5 5 4 4 4 4 4 4 4 3 3 3 4 4 4 3 3 2 2 2 1 2 3 3 2 1
6 6 7 6 5 5 4 4 4 5 5 5 4 4 4 4 5 5 5 4 3 4 4 3 4 5 3 3 3 4 3 3 3 2 3 2 1 1 1 2 2 2 2 1
5 4 4 5 5 5 4 4 4 5 5 5 4 4 4 4 4 4 4 3 3 4 4 4 5 5 3 3 3 3 3 4 4 3 2 1 1 1 1 1 2 1 1 1
4 5 4 4 5 5 5 5 5 5 5 5 5 4 4 4 3 3 4 3 4 4 5 4 5 4 3 3 3 2 2 3 5 3 2 2 2 2 2 2 2 2 2 2
5 6 5 5 5 5 5 4 4 5 5 5 4 3 3 3 4 5 4 4 3 4 4 4 4 3 3 3 3 2 2 3 3 3 2 2 2 2 2 2 2 2 2 2
1 2 2 3 3 4 4 4 4 4 4 3 3 4 4 4 4 4 3 3 4 5 4 4 5 4 3 4 4 2 2 3 3 3 2 3 3 2 2 2 3 2 2 2
2 2 2 2 2 2 3 3 3 3 3 2 3 3 4 4 4 4 4 5 5 4 4 4 4 3 3 4 5 3 3 3 3 3 3 2 2 2 2 3 3 2 2 2
2 2 3 3 3 3 2 2 2 3 3 3 3 4 5 5 4 4 4 5 5 4 4 6 3 3 3 4 5 3 3 3 3 3 3 2 2 2 3 3 2 2 2 2
1 2 3 3 3 3 3 3 2 3 4 4 4 4 4 5 5 4 5 5 5 6 4 3 3 4 5 5 3 3 3 3 3 3 3 3 3 3 3 2 2 2 2 2
2 2 2 3 3 4 4 3 3 3 4 4 4 5 5 5 4 4 5 4 3 6 4 3 5 7 7 4 2 3 3 3 3 3 3 3 3 3 3 3 2 2 3 3
2 2 3 3 3 3 4 5 4 4 4 5 5 5 5 4 4 4 4 6 7 7 3 5 7 8 6 2 2 2 3 3 3 3 3 3 3 3 3 3 3 3 3 4
2 2 2 3 3 3 4 4 4 4 4 4 5 5 4 3 4 4 4 4 6 5 3 4 7 6 3 1 2 3 3 3 3 3 3 3 3 3 3 3 3 3 3 3
2 3 3 3 3 3 3 3 3 4 4 4 5 4 4 3 3 3 3 3 4 5 3 2 3 3 2 2 2 3 3 3 3 2 3 3 3 3 3 3 3 3 3 3
3 3 2 3 3 3 3 3 3 4 4 4 5 5 4 4 3 3 3 3 2 2 2 2 2 2 2 2 2 2 2 2 2 2 2 2 3 3 3 3 3 3 3 4
Wind_Direction
256 265 263 260 267 258 239 239 246 262 266 273 279 276 277 279 287 296 304 309 307 302 302 311 320 324 324 319 320 315 312 309 294 280 285 282 264 227 211 208 205 195 194 194
269 260 259 266 265 257 254 250 250 262 270 269 277 278 276 270 270 276 285 289 294 295 298 303 306 313 318 318 320 324 316 308 309 303 294 293 278 256 216 207 204 191 192 193
270 281 286 264 248 241 236 231 228 246 257 274 279 271 262 263 269 266 271 277 286 287 281 284 291 299 302 306 319 325 319 313 314 315 303 294 278 267 231 214 199 197 195 197
266 304 248 249 224 222 237 251 241 246 263 269 262 267 267 257 248 257 265 272 281 284 289 293 300 305 304 311 321 323 321 321 321 320 307 298 286 267 259 236 202 199 198 198
228 249 271 283 258 208 224 265 250 248 264 275 277 303 299 279 249 241 242 257 265 270 282 299 306 305 310 317 323 325 321 321 323 324 309 300 292 273 266 245 218 202 196 195
221 239 255 258 252 214 130 281 271 243 259 273 303 295 282 286 265 259 265 273 276 288 301 307 304 310 319 316 324 318 313 314 318 320 311 297 291 281 267 233 227 207 199 195
229 244 261 257 242 123 193 251 269 240 245 244 229 239 261 275 272 262 265 272 280 291 292 290 298 316 319 316 311 305 310 314 315 316 313 303 298 289 263 232 224 208 195 193
206 229 252 230 165 192 224 243 253 250 245 243 253 265 270 266 265 268 276 280 278 284 292 296 303 315 313 307 303 309 314 315 315 320 319 315 307 301 265 227 208 191 182 187
204 224 241 202 209 227 225 241 250 250 257 253 258 264 267 265 264 264 264 265 265 260 283 297 299 291 287 292 301 312 319 318 319 321 317 316 304 290 270 230 195 187 184 184
242 253 253 254 255 254 244 241 246 248 250 245 252 260 263 265 267 267 265 259 257 254 270 286 290 287 274 285 297 305 309 311 314 319 319 321 304 277 248 234 210 197 189 187
247 260 268 254 242 246 253 254 257 259 252 247 248 258 257 257 260 259 258 256 249 242 251 266 277 281 281 286 297 301 301 303 307 309 308 313 303 285 275 248 228 229 210 197
242 237 226 243 237 234 244 253 254 260 267 261 247 252 257 257 255 254 254 252 250 247 251 262 272 279 283 285 282 285 295 298 300 305 309 311 313 330 332 308 302 285 250 230
243 250 242 250 252 242 242 250 252 251 254 261 259 253 255 256 256 252 252 248 242 244 248 255 265 275 283 282 278 270 272 282 290 296 306 309 317 328 334 345 341 315 269 231
243 247 256 255 256 260 254 254 257 260 256 253 254 259 257 256 258 251 249 248 249 250 252 254 260 267 272 269 270 270 271 277 281 286 297 298 301 299 296 307 320 329 327 253
246 234 238 252 260 265 261 264 272 273 273 273 266 259 257 257 258 258 257 255 255 255 256 255 258 265 269 265 267 271 273 275 279 286 292 282 292 294 290 287 287 291 322 327
251 250 248 251 260 267 273 270 264 269 272 274 275 270 266 262 262 265 264 250 245 254 257 255 256 261 264 262 263 268 271 276 282 283 282 270 281 276 272 271 273 264 248 235
240 257 257 262 264 267 263 256 252 258 264 267 268 273 278 279 275 272 274 269 257 257 257 254 256 259 255 249 245 252 263 276 282 286 267 255 253 253 254 259 257 257 249 225
228 238 244 246 253 260 268 268 263 264 264 267 276 279 273 270 268 269 275 283 284 279 266 254 255 257 249 241 238 239 247 257 262 263 260 258 252 244 244 251 253 251 245 215
266 266 273 269 257 251 260 269 272 272 275 275 275 273 273 271 272 273 276 276 271 272 271 259 259 253 244 244 250 235 241 254 261 258 259 264 269 254 245 245 246 233 216 205
7 355 338 324 314 288 282 288 292 294 293 286 283 286 288 286 286 281 277 270 260 256 261 262 255 241 237 242 252 235 234 241 246 249 253 246 247 255 251 248 236 216 199 188
355 346 340 330 321 318 307 299 298 299 304 299 282 278 281 287 288 279 273 276 276 264 260 262 255 237 233 241 249 230 229 235 237 240 246 244 243 253 252 245 232 214 193 173
325 326 322 319 319 317 317 312 300 298 303 302 296 289 287 289 290 283 266 261 272 276 273 253 245 247 251 254 225 220 228 230 235 235 239 236 235 243 242 230 223 210 191 177
301 305 311 311 305 303 310 311 304 299 294 293 292 288 283 281 279 275 282 277 271 275 273 249 254 261 262 248 225 224 225 228 233 235 237 236 237 238 228 218 215 202 187 175
301 305 305 307 311 311 309 308 308 303 294 291 285 280 280 285 285 271 267 280 284 285 272 262 267 268 265 234 217 217 220 224 229 234 239 238 238 233 219 207 206 199 182 173
284 286 291 300 303 295 293 302 309 306 302 298 295 291 285 271 268 279 284 284 282 286 278 272 275 276 260 221 218 220 221 222 225 227 230 232 228 222 216 207 198 190 180 174
272 273 270 265 267 276 286 294 297 299 301 301 302 302 298 290 282 284 287 284 277 284 282 269 266 265 233 221 225 227 225 236 246 242 231 230 220 215 211 200 191 187 178 169
277 275 279 288 285 277 279 283 286 291 293 292 295 296 293 293 294 295 294 290 290 285 277 269 256 238 229 223 224 229 228 224 220 225 228 224 217 212 200 190 187 177 167 162